Location: Aalsum
(53.3404°N, 6.0062°E)
Time: 10:42:41
(UTC+00:00)

Timation 2 Rocket - Pass Details

Date: 28 January 2023
Orbit: 905 x 1075 km, 70.0° (Epoch: 19 March)

Event Time Altitude Azimuth Distance (km) Brightness Sun altitude
Rises 17:02:01 0° 325° (NW) 3,569 7.2 -7.7°
Reaches altitude 10° 17:04:35 10° 330° (NNW) 2,638 6.4 -8.1°
Maximum altitude 17:10:33 52° 47° (NE) 1,166 4.1 -8.9°
Drops below altitude 10° 17:16:42 10° 124° (SE) 2,728 6.0 -9.8°
Sets 17:19:23 0° 129° (SE) 3,700 6.7 -10.2°
